Location: Béaulencourt
(50.0796°N, 2.8795°E)
Time: 05:46:03
(UTC+00:00)

Cosmos 2154 Rocket - Pass Details

Date: 20 January 2026
Orbit: 965 x 997 km, 82.9° (Epoch: 18 February)

Event Time Altitude Azimuth Distance (km) Brightness Sun altitude
Rises 05:04:11 0° 189° (S) 3,690 7.0 -24.1°
Reaches altitude 10° 05:06:42 10° 189° (S) 2,741 6.3 -23.7°
Maximum altitude 05:13:00 86° 277° (W) 992 3.9 -22.6°
Drops below altitude 10° 05:19:19 10° 9° (N) 2,737 6.4 -21.6°
Sets 05:21:50 0° 10° (N) 3,684 7.1 -21.2°
